Home   Weather   Hamburg   Past weeks

Flag for Germany Past Weather in Hamburg, Hamburg, Germany — Yesterday and Last 2 Weeks

Now
36 °F

Passing clouds.


Feels Like: 32 °F
Forecast: 29 / 38 °F
Wind: 5 mph from West

Location: Hamburg-Fuhlsbuettel

Current Time: Dec 6, 2016 at 7:05:46 am

Latest Report: Dec 6, 2016 at 6:20 am


Visibility: N/A

Pressure: 30.36 "Hg

Humidity: 81%

Dew Point: 30 °F

Location of HamburgLocation

Past Weather in Hamburg — Graph

°F

Hamburg Temperature Yesterday

Maximum temperature yesterday: 39 °F (at 1:20 pm)
Minimum temperature yesterday: 23 °F (at 5:20 am)
Average temperature yesterday: 30 °F

High & Low Weather Summary for the Past Weeks

 TemperatureHumidityPressure
High61 °F (Nov 21, 1:20 pm)100% (Nov 23, 6:50 pm)30.54 "Hg (Nov 23, 6:50 pm)
Low19 °F (Nov 29, 2:20 am)53% (Dec 2, 12:20 pm)29.62 "Hg (Nov 21, 5:20 am)
Average38 °F87%30.18 "Hg
* Reported Nov 21 5:20 am — Dec 6 5:50 am, Hamburg, Weather by CustomWeather, © 2016

Note: Actual official high and low records may vary slightly from our data, if they occured in-between our weather recording intervals... More about our weather records

Advertising

Hamburg Weather History for the Previous 24 Hours

Scroll right to see more
 ConditionsComfort  
Time TempWeatherWind HumidityBarometerVisibility
5:50 am
Tue, Dec 6
36 °FPassing clouds.6 mph81%30.36 "HgN/A
5:20 am36 °FPassing clouds.7 mph81%30.36 "HgN/A
4:50 am36 °FPassing clouds.6 mph81%30.36 "HgN/A
4:20 am36 °FPassing clouds.7 mph81%30.36 "HgN/A
3:50 am36 °FPassing clouds.7 mph81%30.33 "HgN/A
3:20 am36 °FPassing clouds.7 mph81%30.33 "HgN/A
2:50 am36 °FPassing clouds.6 mph81%30.33 "HgN/A
2:20 am36 °FPassing clouds.6 mph81%30.33 "HgN/A
1:50 am36 °FPassing clouds.8 mph75%30.33 "HgN/A
1:20 am36 °FPassing clouds.8 mph75%30.33 "HgN/A
12:50 am36 °FPassing clouds.6 mph75%30.33 "HgN/A
12:20 am34 °FPassing clouds.6 mph81%30.33 "HgN/A
11:50 pm
Mon, Dec 5
34 °FPassing clouds.5 mph81%30.33 "HgN/A
11:20 pm34 °FPassing clouds.3 mph81%30.33 "HgN/A
10:50 pm34 °FPassing clouds.No wind81%30.33 "HgN/A
10:20 pm34 °FPassing clouds.2 mph81%30.30 "HgN/A
9:50 pm34 °FPassing clouds.2 mph81%30.33 "HgN/A
9:20 pm32 °FPassing clouds.1 mph87%30.30 "HgN/A
8:50 pm32 °FPassing clouds.2 mph87%30.30 "HgN/A
8:20 pm30 °FPassing clouds.2 mph93%30.30 "HgN/A
7:50 pm30 °FPassing clouds.No wind93%30.30 "HgN/A
7:20 pm30 °FPassing clouds.No wind93%30.30 "HgN/A
6:50 pm30 °FPassing clouds.No wind93%30.30 "HgN/A
6:20 pm30 °FPassing clouds.No wind93%30.30 "HgN/A
5:50 pm30 °FPassing clouds.No wind93%30.30 "HgN/A
5:20 pm30 °FPassing clouds.No wind93%30.30 "HgN/A
4:50 pm30 °FPassing clouds.2 mph86%30.30 "HgN/A
4:20 pm32 °FPassing clouds.3 mph87%30.30 "HgN/A
3:50 pm36 °FPassing clouds.3 mph70%30.30 "HgN/A
3:20 pm37 °FPassing clouds.2 mph65%30.30 "HgN/A
2:50 pm39 °FPassing clouds.3 mph70%30.30 "HgN/A
2:20 pm39 °FSunny.6 mph70%30.30 "Hg10 mi
1:50 pm39 °FSunny.2 mph65%30.30 "Hg10 mi
1:20 pm39 °FSunny.2 mph70%30.30 "Hg10 mi
12:50 pm37 °FPassing clouds.3 mph70%30.30 "HgN/A
12:20 pm36 °FSunny.No wind81%30.30 "Hg10 mi
11:50 am36 °FSunny.1 mph87%30.33 "Hg10 mi
11:20 am32 °FSunny.2 mph93%30.33 "Hg10 mi
10:50 am32 °FSunny.1 mph93%30.33 "Hg10 mi
10:20 am30 °FPassing clouds.5 mph93%30.33 "HgN/A
9:50 am28 °FSunny.5 mph93%30.33 "Hg10 mi
9:20 am25 °FSunny.2 mph100%30.33 "Hg10 mi
8:50 am23 °FSunny.2 mph100%30.33 "Hg10 mi
8:20 am23 °FSunny.3 mph100%30.33 "Hg10 mi
7:50 am23 °FClear.2 mph100%30.33 "Hg10 mi
7:20 am23 °FFog.2 mph100%30.33 "Hg6 mi
Weather by CustomWeather, © 2016

See weather overviewHow to use our weather pages